Regional Weather Roundup
Issued by NWS

Home | Current Version | Previous Version | Text Only | Print | Product List | Glossary On
Versions: 1 2 3 4 5 6 7 8 9 10 11 12 13 14 15 16 17 18 19 20 21 22 23 24 25 26 27 28 29 30 31 32 33 34 35 36 37 38 39 40 41 42 43 44 45 46 47 48 49 50
000
ASUS42 KKEY 222110
RWRKEY

FLORIDA REGIONAL WEATHER ROUNDUP FOR THE FLORIDA KEYS
NATIONAL WEATHER SERVICE KEY WEST FLORIDA
500 PM EDT FRI AUG 22 2014

...SOUTH FLORIDA AND THE KEYS...

CITY           SKY/WX    TMP DP  RH WIND       PRES   REMARKS
FORT MYERS     MOSUNNY   95  67  39 CALM      29.98F HX  99
SW REGIONAL AP MOSUNNY   94  68  42 CALM      29.98F HX  98
NAPLES         MOSUNNY   92  76  59 W10       29.98F HX 104
MIAMI          MOSUNNY   88  73  61 E12       30.00F HX  95
WEST KENDALL   PTSUNNY   91  75  59 E9        30.00S HX 101
HOMESTEAD      SUNNY     89  76  64 NE12      30.00F HX 100
MARATHON       SUNNY     90  73  57 VRB6      29.99F HX  98
BOCA CHICA NAS MOSUNNY   91  74  57 SE10      29.99F HX 100
KEY WEST INTL  MOSUNNY   90  73  57 E9        30.00F HX  98

...INTERNATIONAL WEATHER...

CITY           SKY/WX    TMP DP  RH WIND       PRES   REMARKS
NASSAU BAHAMAS MOSUNNY   86  75  70 NE8       30.01S HX  95
CANCUN MEXICO  MOSUNNY   90  75  62 SE12      29.96F HX 100
COZUMEL MEXICO MOSUNNY   86  75  70 E16       29.95F HX  95

ADJACENT COASTAL WATERS...

STATION/POSITION TIME  SKY/WX   TEMP    WIND        PRES    WAVE
                                AIR SEA DIR/SP/G            HT/PER
                 (UTC)          (F)     (DEG/KT/KT) (MB)    (FT/S)
PULASKI SHOAL LI 2100            85      50/  3/  4 1015.8F
SAND KEY         2100            86      60/  4/  6 1015.7F
SOMBRERO KEY     2100            87      80/ 10/ 11 1016.3F
LONG KEY         2000            87 91  100/  8/  9 1016.7F
MOLASSES REEF    2100            85 88   80/ 10/ 12 1015.9F
FOWEY ROCKS      2100            86 88   60/ 10/ 10 1016.5S
Buoy 42080       NOT AVBL

$$


USA.gov is the U.S. government's official web portal to all federal, state and local government web resources and services.